Regional Weather Roundup
Issued by NWS Sterling, VA

Home | Current Version | Previous Version | Graphics & Text | Print | Product List | Glossary On
Versions: 1 2 3 4 5 6 7 8 9 10 11 12 13 14 15 16 17 18 19 20 21 22 23 24 25 26 27 28 29 30 31 32 33 34 35 36 37 38 39 40 41 42 43 44 45 46 47 48 49 50
000
ASUS41 KLWX 240411
RWRLWX

REGIONAL WEATHER ROUNDUP
NATIONAL WEATHER SERVICE BALTIMORE MD/WASHINGTON DC
1200 AM EDT WED MAY 24 2017

Note: "FAIR" indicates few or no clouds below 12,000 feet
with no significant weather and/or obstructions to visibility.
 TC=TEMPERATURE CELSIUS

 * =Non NWS site. Station does not report precipitation (e.g. rain,
    snow, etc.), thunder, or fog.

DCZ001-MDZ009-015-VAZ040>042-051-053>054-240500-
WASHINGTON METRO

CITY           SKY/WX    TMP DP  RH WIND       PRES   REMARKS
WASHINGTON NAT CLOUDY    61  57  87 N6        29.75F
DULLES         LGT RAIN  59  57  93 N3        29.76S FOG
ANDREWS AFB    CLOUDY    58  55  91 N5        29.74S
FT BELVOIR     CLOUDY    58  56  90 CALM      29.75F
QUANTICO       CLOUDY    60  56  86 N6        29.76R
COLLEGE PARK*  CLOUDY    59  57  95 CALM      29.75F
LEESBURG*      LGT RAIN  59  59 100 N5        29.78S
MANASSAS*      LGT RAIN  57  55  94 N5        29.76F
GAITHERSBURG*  LGT RAIN  58  58 100 CALM      29.77S FOG

$$

MDZ006>007-011-014-240500-
BALTIMORE METRO

CITY           SKY/WX    TMP DP  RH WIND       PRES   REMARKS
BWI AIRPORT    CLOUDY    60  58  92 E7        29.75F
MD SCIENCE CTR   N/A     63  58  83 MISG      29.76F
MARTIN STATE   DRIZZLE   61  59  94 CALM      29.77F
ANNAPOLIS      CLOUDY    63  54  72 NE6       29.74F
FORT MEADE*    CLOUDY    57  55  94 CALM      29.78F

$$

MDZ012-015-019>023-240500-
MARYLAND EASTERN SHORE

CITY           SKY/WX    TMP DP  RH WIND       PRES   REMARKS
OCEAN CITY     RAIN      57  56  96 NE14      29.72F
SALISBURY      LGT RAIN  57  57 100 E12       29.70F
BAY BRIDGE AP* CLOUDY    59  54  82 E7        29.75F
CAMBRIDGE*       N/A     57  55  94 NE7       29.71F FOG
EASTON*        LGT RAIN  58  55  87 NE6       29.76F

$$

MDZ017>025-240500-
SOUTHERN MARYLAND

CITY           SKY/WX    TMP DP  RH WIND       PRES   REMARKS
PATUXENT RIVER LGT RAIN  59  59 100 N8        29.73R
ST INIGOES     LGT RAIN  59  58  96 N5        29.73R
LEONARDTOWN*   CLOUDY    57  55  94 CALM      29.75R

$$

MDZ003>005-240500-
NORTH CENTRAL MARYLAND

CITY           SKY/WX    TMP DP  RH WIND       PRES   REMARKS
FREDERICK*     LGT RAIN  59  59 100 CALM      29.80S
HAGERSTOWN APT LGT RAIN  59  55  87 CALM      29.77F
WESTMINSTER*   NOT AVBL

$$

MDZ501>502-240500-
WESTERN MARYLAND

CITY           SKY/WX    TMP DP  RH WIND       PRES   REMARKS
OAKLAND*       FOG       50  50 100 SE10      29.77F VSB 1/4
CUMBERLAND*    CLOUDY    57  57 100 CALM      29.81F

$$

VAZ025>031-240500-
SHENANDOAH VALLEY

CITY           SKY/WX    TMP DP  RH WIND       PRES   REMARKS
WINCHESTER*    RAIN      55  54  94 CALM      29.77F
FRONT ROYAL*   CLOUDY    55  55 100 CALM      29.76F
LURAY*         RAIN      55  55 100 N8        29.76S
NEW MARKET*    CLOUDY    57  56  95 N5        29.77S
STAUNTON*      RAIN      57  56  99 N5        29.78F
WAYNESBORO*    CLOUDY    56  56 100 N7        29.76S

$$

WVZ021-048>050-054>055-240500-
EASTERN WEST VIRGINIA PANHANDLE

CITY           SKY/WX    TMP DP  RH WIND       PRES   REMARKS
MARTINSBURG    LGT RAIN  57  56  96 CALM      29.77F FOG
PETERSBURG*    RAIN      58  57  98 CALM      29.79F

$$

VAZ036>039-050-240500-
CENTRAL FOOTHILLS

CITY           SKY/WX    TMP DP  RH WIND       PRES   REMARKS
CHARLOTTESVILL RAIN      61  59  93 N6        29.74S FOG
CULPEPER*      RAIN      60  60 100 NE3       29.76F
ORANGE*        RAIN      57  55  94 NE3       29.75S
GORDONSVILLE*  CLOUDY    58  58 100 NE7       29.73F FOG
WARRENTON*     RAIN      59  55  87 N5        29.76S

$$

VAZ055>057-240500-
NORTH AND CENTRAL PIEDMONT

CITY           SKY/WX    TMP DP  RH WIND       PRES   REMARKS
FREDERICKSBRG* CLOUDY    59  59 100 N3        29.73F
STAFFORD*      LGT RAIN  57  57 100 N5        29.79F

$$

NCZ024-NYZ072-PAZ021-071-VAZ022-071-240500-
OTHER REGIONAL OBSERVATIONS

CITY           SKY/WX    TMP DP  RH WIND       PRES   REMARKS
NEW YORK CITY  CLOUDY    62  50  64 CALM      29.81F
PHILADELPHIA   LGT RAIN  61  50  67 NE6       29.77F
PITTSBURGH     CLOUDY    62  54  74 S7        29.72F
ROANOKE        CLOUDY    58  57  97 NE8       29.76F
RICHMOND       CLOUDY    59  59 100 NE9       29.70F
RALEIGH        CLOUDY    67  65  93 E3        29.67S

$$

ANZ530>537-240500-
MARINE OBSERVATIONS

STATION/POSITION TIME  TEMP    WIND        PRES
                       AIR SEA DIR/SP/G
                 (UTC) (F)     (DEG/KT/KT) (MB)
THOMAS PT LIGHT  0400   61 65   50/ 10/ 11   N/A
BALT KEY BRIDGE  0348   62      60/  5/  6 1007.5F
COVE POINT       0348   59      40/ 10/ 12 1007.3R
LEWISETTA        0348   61 67   30/  7/ 10 1006.5R
SOLOMONS ISLAND  0348   59 67   10/  4/  7   N/A
PINEY POINT      0348           10/  8/ 10   N/A

$$




USA.gov is the U.S. government's official web portal to all federal, state and local government web resources and services.